�������l�o���
Date,Time,MP-1(��Sv/h),MP-2(��Sv/h),MP-3(��Sv/h),MP-4(��Sv/h),MP-5(��Sv/h),MP-6(��Sv/h),MP-7(��Sv/h),MP-8(��Sv/h),����,����(m/s),���J
2022/10/16,00:00,0.570,0.820,0.525,1.027,0.718,0.337,0.585,0.552,�k��,2.6,��
2022/10/16,00:10,0.566,0.819,0.525,1.027,0.718,0.336,0.583,0.551,�k��,2.6,��
2022/10/16,00:20,0.570,0.818,0.524,1.026,0.719,0.337,0.586,0.554,�k�k��,2.5,��
2022/10/16,00:30,0.569,0.820,0.526,1.025,0.719,0.336,0.585,0.554,�k�k��,2.0,��
2022/10/16,00:40,0.569,0.819,0.524,1.025,0.719,0.337,0.585,0.552,�k�k��,2.3,��
2022/10/16,00:50,0.568,0.818,0.524,1.027,0.718,0.336,0.586,0.552,�k�k��,2.3,��
2022/10/16,01:00,0.568,0.819,0.525,1.026,0.720,0.336,0.584,0.552,�k�k��,2.0,��
2022/10/16,01:10,0.566,0.818,0.525,1.027,0.719,0.337,0.585,0.552,�k�k��,3.3,��
2022/10/16,01:20,0.566,0.819,0.525,1.027,0.719,0.335,0.584,0.553,�k�k��,3.5,��
2022/10/16,01:30,0.568,0.820,0.526,1.026,0.718,0.337,0.587,0.553,�k�k��,3.4,��
2022/10/16,01:40,0.567,0.819,0.523,1.026,0.717,0.337,0.584,0.551,�k�k��,3.5,��
2022/10/16,01:50,0.568,0.821,0.525,1.026,0.717,0.336,0.584,0.551,�k�k��,3.6,��
2022/10/16,02:00,0.567,0.819,0.525,1.025,0.716,0.335,0.585,0.550,�k�k��,4.0,��
2022/10/16,02:10,0.567,0.818,0.524,1.024,0.718,0.336,0.585,0.551,�k�k��,3.7,��
2022/10/16,02:20,0.566,0.818,0.524,1.025,0.716,0.335,0.584,0.552,�k�k��,3.9,��
2022/10/16,02:30,0.567,0.819,0.523,1.027,0.719,0.336,0.587,0.552,�k�k��,3.8,��
2022/10/16,02:40,0.568,0.819,0.524,1.027,0.717,0.336,0.585,0.551,�k�k��,3.9,��
2022/10/16,02:50,0.567,0.820,0.527,1.026,0.717,0.336,0.584,0.552,�k�k��,3.8,��
2022/10/16,03:00,0.568,0.818,0.526,1.025,0.718,0.338,0.586,0.554,�k�k��,3.9,��
2022/10/16,03:10,0.566,0.819,0.524,1.026,0.719,0.336,0.586,0.552,�k�k��,4.5,��
2022/10/16,03:20,0.569,0.819,0.527,1.026,0.719,0.335,0.584,0.552,�k�k��,4.7,��
2022/10/16,03:30,0.567,0.818,0.525,1.026,0.717,0.336,0.586,0.552,�k�k��,4.4,��
2022/10/16,03:40,0.567,0.817,0.524,1.028,0.717,0.337,0.585,0.553,�k�k��,4.2,��
2022/10/16,03:50,0.568,0.819,0.526,1.026,0.717,0.337,0.587,0.552,�k�k��,4.3,��
2022/10/16,04:00,0.568,0.819,0.525,1.027,0.716,0.337,0.585,0.553,�k�k��,3.9,��
2022/10/16,04:10,0.568,0.817,0.526,1.025,0.716,0.337,0.587,0.552,�k�k��,3.9,��
2022/10/16,04:20,0.568,0.820,0.524,1.025,0.715,0.336,0.585,0.553,�k�k��,3.9,��
2022/10/16,04:30,0.567,0.818,0.523,1.025,0.717,0.336,0.585,0.553,�k�k��,3.5,��
2022/10/16,04:40,0.569,0.818,0.524,1.026,0.717,0.336,0.586,0.552,�k�k��,3.8,��
2022/10/16,04:50,0.568,0.817,0.523,1.025,0.716,0.336,0.585,0.552,�k�k��,3.7,��
2022/10/16,05:00,0.567,0.817,0.526,1.027,0.719,0.337,0.586,0.552,�k�k��,3.8,��
2022/10/16,05:10,0.567,0.818,0.523,1.026,0.716,0.336,0.585,0.552,�k�k��,3.7,��
2022/10/16,05:20,0.566,0.817,0.525,1.027,0.716,0.337,0.585,0.552,�k�k��,4.5,��
2022/10/16,05:30,0.567,0.819,0.524,1.028,0.718,0.335,0.586,0.553,�k�k��,4.0,��
2022/10/16,05:40,0.568,0.818,0.524,1.026,0.716,0.336,0.585,0.552,�k�k��,3.6,��
2022/10/16,05:50,0.567,0.818,0.524,1.026,0.717,0.336,0.585,0.554,�k�k��,3.8,��
2022/10/16,06:00,0.565,0.817,0.524,1.025,0.717,0.336,0.586,0.554,�k�k��,4.6,��
2022/10/16,06:10,0.568,0.817,0.523,1.026,0.717,0.335,0.584,0.552,�k�k��,4.3,��
2022/10/16,06:20,0.568,0.819,0.524,1.028,0.719,0.336,0.586,0.552,�k�k��,4.3,��
2022/10/16,06:30,0.567,0.819,0.525,1.026,0.719,0.336,0.584,0.553,�k�k��,3.9,��
2022/10/16,06:40,0.568,0.818,0.525,1.026,0.718,0.335,0.585,0.552,�k�k��,4.7,��
2022/10/16,06:50,0.567,0.819,0.524,1.026,0.717,0.337,0.584,0.552,�k�k��,5.1,��
2022/10/16,07:00,0.568,0.818,0.526,1.026,0.718,0.335,0.585,0.552,�k,4.4,��
2022/10/16,07:10,0.569,0.819,0.525,1.028,0.718,0.336,0.584,0.552,�k,3.6,��
2022/10/16,07:20,0.568,0.819,0.525,1.024,0.718,0.336,0.585,0.553,�k�k��,3.5,��
2022/10/16,07:30,0.568,0.818,0.526,1.027,0.717,0.336,0.585,0.554,�k�k��,3.5,��
2022/10/16,07:40,0.568,0.820,0.525,1.027,0.717,0.337,0.587,0.554,�k�k��,3.7,��
2022/10/16,07:50,0.566,0.821,0.525,1.028,0.718,0.336,0.584,0.554,�k�k��,3.0,��
2022/10/16,08:00,0.568,0.819,0.526,1.029,0.718,0.336,0.584,0.554,�k�k��,3.2,��
2022/10/16,08:10,0.569,0.821,0.526,1.027,0.719,0.335,0.583,0.554,�k�k��,2.6,��
2022/10/16,08:20,0.568,0.818,0.524,1.028,0.716,0.335,0.583,0.551,�k�k��,2.6,��
2022/10/16,08:30,0.569,0.817,0.527,1.029,0.716,0.336,0.582,0.552,�k�k��,2.2,��
2022/10/16,08:40,0.570,0.819,0.524,1.027,0.716,0.334,0.585,0.552,�k,2.0,��
2022/10/16,08:50,0.569,0.819,0.526,1.029,0.717,0.334,0.585,0.553,�k�k��,2.3,��
2022/10/16,09:00,0.568,0.817,0.526,1.027,0.717,0.336,0.584,0.554,�k,2.6,��
2022/10/16,09:10,0.567,0.818,0.526,1.027,0.718,0.335,0.585,0.552,�k�k��,2.5,��
2022/10/16,09:20,0.567,0.817,0.526,1.026,0.717,0.334,0.586,0.552,�k�k��,2.6,��
2022/10/16,09:30,0.568,0.818,0.525,1.027,0.718,0.333,0.584,0.552,�k�k��,3.2,��
2022/10/16,09:40,0.567,0.819,0.526,1.028,0.717,0.335,0.587,0.551,�k�k��,3.6,��
2022/10/16,09:50,0.568,0.817,0.525,1.027,0.718,0.335,0.585,0.552,�k�k��,3.9,��
2022/10/16,10:00,0.565,0.819,0.525,1.028,0.717,0.336,0.584,0.550,�k�k��,4.0,��
2022/10/16,10:10,0.570,0.820,0.524,1.030,0.718,0.335,0.586,0.551,�k�k��,3.7,��
2022/10/16,10:20,0.569,0.819,0.524,1.029,0.717,0.335,0.586,0.550,�k�k��,3.6,��
2022/10/16,10:30,0.568,0.820,0.525,1.026,0.719,0.335,0.585,0.550,�k�k��,3.0,��
2022/10/16,10:40,0.569,0.821,0.526,1.026,0.717,0.336,0.586,0.551,�k�k��,3.2,��
2022/10/16,10:50,0.567,0.822,0.523,1.027,0.716,0.336,0.586,0.551,�k�k��,3.2,��
2022/10/16,11:00,0.570,0.819,0.524,1.028,0.719,0.335,0.586,0.553,�k�k��,3.3,��
2022/10/16,11:10,0.570,0.822,0.524,1.026,0.720,0.335,0.586,0.551,�k��,3.4,��
2022/10/16,11:20,0.570,0.821,0.524,1.029,0.719,0.334,0.585,0.552,�k��,3.8,��
2022/10/16,11:30,0.570,0.820,0.525,1.028,0.718,0.335,0.585,0.552,���k��,3.1,��
2022/10/16,11:40,0.569,0.820,0.526,1.029,0.720,0.335,0.584,0.550,�k��,3.1,��
2022/10/16,11:50,0.569,0.821,0.526,1.028,0.720,0.335,0.586,0.554,�k��,3.1,��
2022/10/16,12:00,0.569,0.821,0.526,1.029,0.719,0.334,0.587,0.552,���k��,3.3,��
2022/10/16,12:10,0.571,0.821,0.526,1.028,0.719,0.335,0.587,0.551,�k��,3.2,��
2022/10/16,12:20,0.570,0.819,0.526,1.028,0.719,0.336,0.586,0.552,�k��,3.3,��
2022/10/16,12:30,0.570,0.822,0.525,1.028,0.719,0.335,0.587,0.551,�k��,3.7,��
2022/10/16,12:40,0.570,0.821,0.525,1.026,0.721,0.338,0.586,0.553,�k�k��,3.1,��
2022/10/16,12:50,0.571,0.821,0.524,1.027,0.720,0.335,0.586,0.553,�k��,3.4,��
2022/10/16,13:00,0.569,0.823,0.526,1.027,0.720,0.334,0.588,0.553,�k��,3.5,��
2022/10/16,13:10,0.571,0.824,0.525,1.029,0.719,0.335,0.586,0.552,�k��,3.9,��
2022/10/16,13:20,0.568,0.822,0.526,1.031,0.721,0.336,0.585,0.553,�k��,3.3,��
2022/10/16,13:30,0.570,0.821,0.527,1.029,0.720,0.334,0.586,0.553,�k��,2.6,��
2022/10/16,13:40,0.570,0.823,0.525,1.029,0.719,0.334,0.586,0.553,�k��,2.6,��
2022/10/16,13:50,0.571,0.823,0.524,1.029,0.721,0.336,0.586,0.552,���k��,3.0,��
2022/10/16,14:00,0.569,0.821,0.526,1.029,0.719,0.335,0.588,0.552,��,2.6,��
2022/10/16,14:10,0.571,0.820,0.526,1.029,0.720,0.335,0.587,0.551,��,3.0,��
2022/10/16,14:20,0.569,0.821,0.525,1.030,0.718,0.335,0.588,0.554,���쓌,2.2,��
2022/10/16,14:30,0.572,0.822,0.526,1.029,0.718,0.335,0.587,0.553,���쓌,3.1,��
2022/10/16,14:40,0.570,0.823,0.526,1.028,0.720,0.336,0.587,0.551,�쓌,2.6,��
2022/10/16,14:50,0.570,0.822,0.523,1.029,0.720,0.336,0.587,0.552,�쓌,1.7,��
2022/10/16,15:00,0.568,0.820,0.523,1.030,0.721,0.336,0.587,0.552,�쓌,3.5,��
2022/10/16,15:10,0.569,0.822,0.526,1.026,0.720,0.335,0.586,0.553,��쓌,2.6,��
2022/10/16,15:20,0.569,0.821,0.524,1.027,0.720,0.335,0.587,0.551,�쓌,2.0,��
2022/10/16,15:30,0.569,0.822,0.526,1.028,0.720,0.335,0.587,0.552,�쓌,2.3,��
2022/10/16,15:40,0.570,0.823,0.526,1.029,0.718,0.336,0.586,0.551,�쓌,2.3,��
2022/10/16,15:50,0.570,0.821,0.525,1.028,0.720,0.334,0.586,0.551,�쓌,2.3,��
2022/10/16,16:00,0.570,0.821,0.527,1.030,0.720,0.335,0.587,0.551,���쓌,2.5,��
2022/10/16,16:10,0.571,0.820,0.526,1.029,0.719,0.336,0.587,0.551,��쓌,1.7,��
2022/10/16,16:20,0.572,0.821,0.529,1.028,0.717,0.335,0.586,0.553,��쓌,2.0,��
2022/10/16,16:30,0.569,0.821,0.529,1.030,0.721,0.335,0.586,0.554,�쓌,2.2,��
2022/10/16,16:40,0.570,0.824,0.528,1.028,0.720,0.336,0.586,0.552,�쓌,2.5,��
2022/10/16,16:50,0.569,0.820,0.528,1.028,0.719,0.335,0.586,0.553,��쓌,2.3,��
2022/10/16,17:00,0.570,0.823,0.529,1.029,0.721,0.336,0.586,0.553,��쓌,1.5,��
2022/10/16,17:10,0.571,0.823,0.527,1.031,0.721,0.336,0.586,0.550,�쓌,2.3,��
2022/10/16,17:20,0.572,0.822,0.527,1.029,0.721,0.336,0.586,0.552,��쓌,1.5,��
2022/10/16,17:30,0.572,0.823,0.527,1.030,0.720,0.336,0.588,0.553,�쓌,1.5,��
2022/10/16,17:40,0.571,0.824,0.528,1.030,0.722,0.336,0.586,0.553,���쓌,2.3,��
2022/10/16,17:50,0.571,0.821,0.527,1.030,0.720,0.336,0.586,0.553,�쓌,1.7,��
2022/10/16,18:00,0.573,0.822,0.526,1.030,0.721,0.337,0.586,0.552,��쓌,1.2,��
2022/10/16,18:10,0.571,0.821,0.526,1.029,0.720,0.337,0.587,0.553,��쓌,2.3,��
2022/10/16,18:20,0.573,0.824,0.528,1.030,0.719,0.336,0.586,0.554,�쓌,2.0,��
2022/10/16,18:30,0.571,0.824,0.527,1.030,0.721,0.337,0.586,0.553,��,1.7,��
2022/10/16,18:40,0.572,0.826,0.529,1.029,0.723,0.337,0.587,0.554,��,2.0,��
2022/10/16,18:50,0.571,0.826,0.528,1.026,0.723,0.337,0.587,0.555,��,2.0,��
2022/10/16,19:00,0.572,0.825,0.528,1.027,0.723,0.336,0.588,0.554,��,1.4,��
2022/10/16,19:10,0.572,0.824,0.527,1.029,0.722,0.337,0.587,0.554,��,0.9,��
2022/10/16,19:20,0.572,0.824,0.528,1.030,0.724,0.337,0.588,0.554,��,0.8,��
2022/10/16,19:30,0.573,0.824,0.527,1.029,0.722,0.338,0.588,0.553,��,1.2,��
2022/10/16,19:40,0.571,0.823,0.526,1.030,0.723,0.337,0.587,0.553,��,1.4,��
2022/10/16,19:50,0.570,0.824,0.527,1.028,0.725,0.338,0.586,0.553,��,1.7,��
2022/10/16,20:00,0.571,0.825,0.526,1.028,0.722,0.337,0.587,0.553,��쐼,1.1,��
2022/10/16,20:10,0.571,0.822,0.529,1.029,0.723,0.336,0.587,0.553,��,0.6,��
2022/10/16,20:20,0.571,0.824,0.527,1.029,0.723,0.337,0.588,0.553,��쐼,1.4,��
2022/10/16,20:30,0.570,0.824,0.525,1.030,0.723,0.338,0.588,0.554,��쐼,0.9,��
2022/10/16,20:40,0.573,0.823,0.527,1.028,0.722,0.338,0.586,0.552,��쐼,0.8,��
2022/10/16,20:50,0.572,0.824,0.528,1.030,0.722,0.338,0.585,0.553,��,1.1,��
2022/10/16,21:00,0.572,0.824,0.527,1.028,0.722,0.338,0.587,0.553,��,2.8,��
2022/10/16,21:10,0.571,0.823,0.527,1.029,0.722,0.337,0.588,0.553,��,2.2,��
2022/10/16,21:20,0.571,0.823,0.526,1.032,0.722,0.336,0.586,0.552,��,2.6,��
2022/10/16,21:30,0.571,0.823,0.528,1.028,0.721,0.338,0.586,0.554,��,2.6,��
2022/10/16,21:40,0.572,0.825,0.527,1.030,0.722,0.338,0.587,0.554,��쓌,2.3,��
2022/10/16,21:50,0.572,0.824,0.526,1.026,0.723,0.339,0.587,0.555,��쓌,3.0,��
2022/10/16,22:00,0.572,0.825,0.528,1.028,0.722,0.337,0.587,0.553,��쓌,4.4,��
2022/10/16,22:10,0.571,0.824,0.527,1.031,0.723,0.337,0.587,0.553,��,4.3,��
2022/10/16,22:20,0.572,0.826,0.528,1.029,0.722,0.338,0.586,0.552,��쐼,3.8,��
2022/10/16,22:30,0.571,0.825,0.527,1.030,0.723,0.338,0.587,0.553,��,3.7,��
2022/10/16,22:40,0.570,0.823,0.529,1.029,0.721,0.339,0.586,0.555,��,3.0,��
2022/10/16,22:50,0.571,0.825,0.528,1.030,0.723,0.338,0.587,0.553,��,2.5,��
2022/10/16,23:00,0.572,0.824,0.528,1.028,0.722,0.338,0.588,0.554,��,2.3,��
2022/10/16,23:10,0.570,0.823,0.527,1.030,0.721,0.339,0.587,0.554,��,2.3,��
2022/10/16,23:20,0.571,0.824,0.527,1.028,0.722,0.337,0.585,0.553,��,3.1,��
2022/10/16,23:30,0.570,0.825,0.529,1.029,0.724,0.337,0.587,0.553,��,2.6,��
2022/10/16,23:40,0.571,0.823,0.526,1.030,0.722,0.338,0.587,0.553,��,3.4,��
2022/10/16,23:50,0.571,0.823,0.526,1.029,0.724,0.337,0.586,0.555,��,3.3,��
